Hourly Weather Roundup
Issued by NWS Central Illinois

Home | Current Version | Previous Version | Graphics & Text | Print | Product List | Glossary On
Versions: 1 2 3 4 5 6 7 8 9 10 11 12 13 14 15 16 17 18 19 20 21 22 23 24 25 26 27 28 29 30 31 32 33 34 35 36 37 38 39 40 41 42 43 44 45 46 47 48 49 50
000
NZUS43 KILX 182210
HWRILX

AREA WEATHER ROUNDUP
NATIONAL WEATHER SERVICE, LINCOLN IL
500 PM CDT FRI APR 18 2014


CITY           SKY/WX    TMP DP  RH WIND       PRES   REMARKS
BLOOMINGTON    SUNNY     65  25  22 NE8       30.26F
CHAMPAIGN      SUNNY     67  31  26 NW6       30.25F
DANVILLE       SUNNY     67  33  28 N7        30.22F
DECATUR        SUNNY     68  36  30 N5        30.24F
FLORA          NOT AVBL
GALESBURG      SUNNY     64  33  31 N3        30.26F
JACKSONVILLE   SUNNY     67  32  27 CALM      30.24F
LACON          SUNNY     63  32  30 NW5       30.26F
LAWRENCEVILLE  PTSUNNY   72  41  32 N6        30.22F
LITCHFIELD     SUNNY     65  41  41 CALM      30.24F
$$


CITY           SKY/WX    TMP DP  RH WIND       PRES   REMARKS
LINCOLN        SUNNY     69  29  22 CALM      30.23F
MACOMB         SUNNY     64  30  27 CALM      30.27F
MATTOON        SUNNY     68  41  37 NW10      30.23F
MT CARMEL AP   SUNNY     72  34  25 CALM      30.21F
OLNEY-NOBLE AP SUNNY     68  41  37 CALM      30.22F
PARIS          SUNNY     68  37  31 CALM      30.24F
PEORIA         SUNNY     65  29  25 CALM      30.26F
PONTIAC        SUNNY     66  27  22 CALM      30.26S
RANTOUL        SUNNY     68  27  21 CALM      30.26S
ROBINSON       SUNNY     72  41  33 CALM      30.22F
SPRINGFIELD    SUNNY     69  30  23 E3        30.24F
TAYLORVILLE    SUNNY     66  36  32 NW5       30.24F
$$

...REGIONAL REPORTS...


CITY           SKY/WX    TMP DP  RH WIND       PRES   REMARKS
CHICAGO O`HARE MOSUNNY   49  31  49 NE10      30.33S
KANKAKEE       SUNNY     60  41  49 NE14      30.29S
MOLINE         SUNNY     63  28  26 N6        30.27F
MOUNT VERNON   SUNNY     70  39  32 W5        30.22F
PITTSFIELD     SUNNY     68  33  27 CALM      30.24F
QUINCY         SUNNY     66  33  29 CALM      30.23F
ROCKFORD       MOSUNNY   60  28  29 NE5       30.31S
$$


CITY           SKY/WX    TMP DP  RH WIND       PRES   REMARKS
BURLINGTON     SUNNY     63  29  27 CALM      30.25F
CEDAR RAPIDS   SUNNY     60  24  25 SE8       30.25F
DES MOINES     MOSUNNY   65  31  28 S14G21    30.21F
KIRKSVILLE     SUNNY     66  35  31 SE7       30.24F
OTTUMWA        SUNNY     64  28  25 SE8       30.23F
ST LOUIS       MOSUNNY   71  40  32 NW6       30.23F
$$


CITY           SKY/WX    TMP DP  RH WIND       PRES   REMARKS
TERRE HAUTE    SUNNY     69  41  36 VRB7      30.22F
EVANSVILLE     SUNNY     73  39  29 VRB7      30.20F
INDIANAPOLIS   MOSUNNY   68  39  34 N8        30.22F
LAFAYETTE      SUNNY     66  35  31 NW12      30.23F
MADISON        MOSUNNY   55  27  34 E7        30.32F
MILWAUKEE      MOSUNNY   40  30  67 NE17      30.38R WCI  31
$$





USA.gov is the U.S. government's official web portal to all federal, state and local government web resources and services.